Volver al catálogo

EXPRESS AM-5

ActivoComunicacionesGEO
NORAD 39487·PAYLOAD·🇷🇺 Russia

Lanzado Dec 26, 2013 desde Baikonur Cosmodrome

Loading…

TLE

ActualizadoSource: Space-Track

Época: Sep 14, 2026, 12:45 UTC

1 39487U 13077A   26257.53162873 -.00000288  00000-0  00000-0 0  9995
2 39487   0.0277 252.3062 0001796 240.2703 192.3476  1.00272270 47251

Sigue EXPRESS AM-5 en tiempo real con AllMySat

Download on the App Store